| time (UTC) | temp F | wind direction | speed MPH | gust MPH | rain 1hr in | rain 24hr in | rain mn in | humidity % | barometer mb |
| 20260503024248 | 58 | 115 | 9.0 | 13.0 | 5.16 | 0.00 | 0.00 | ||
| 20260503022948 | 60 | 108 | 9.0 | 11.0 | 5.16 | 0.00 | 0.00 | ||
| 20260503021648 | 62 | 124 | 8.0 | 11.0 | 5.16 | 0.00 | 0.00 | ||
| 20260503020348 | 62 | 124 | 8.0 | 10.0 | 5.16 | 0.00 | 0.00 | ||
| 20260503015048 | 65 | 142 | 5.0 | 6.0 | 5.16 | 0.00 | 0.00 | ||
| 20260503013748 | 65 | 149 | 7.0 | 9.0 | 5.16 | 0.00 | 0.00 | ||
| 20260503012448 | 65 | 113 | 9.0 | 13.0 | 5.16 | 0.00 | 0.00 | ||
| 20260503011148 | 67 | 160 | 6.0 | 10.0 | 5.16 | 0.00 | 0.00 | ||
| 20260503005848 | 66 | 118 | 7.0 | 11.0 | 5.16 | 0.00 | 0.00 | ||
| 20260503004548 | 67 | 162 | 5.0 | 11.0 | 5.16 | 0.00 | 0.00 | ||
| 20260503003247 | 66 | 108 | 6.0 | 10.0 | 5.16 | 0.00 | 0.00 | ||
| 20260503001947 | 65 | 122 | 8.0 | 12.0 | 5.16 | 0.00 | 0.00 | ||
| 20260503000648 | 67 | 153 | 5.0 | 10.0 | 5.16 | 0.00 | 0.00 | ||
| 20260502235347 | 66 | 115 | 8.0 | 14.0 | 5.16 | 0.00 | 0.00 | ||
| 20260502234047 | 67 | 180 | 6.0 | 10.0 | 5.16 | 0.00 | 0.00 | ||
| 20260502232747 | 66 | 153 | 7.0 | 14.0 | 5.16 | 0.00 | 0.00 | ||
| 20260502231447 | 67 | 150 | 7.0 | 13.0 | 5.16 | 0.00 | 0.00 | ||
| 20260502230148 | 65 | 128 | 10.0 | 18.0 | 5.16 | 0.00 | 0.00 | ||
| 20260502224847 | 65 | 93 | 5.0 | 12.0 | 5.16 | 0.00 | 0.00 | ||
| 20260502223547 | 64 | 121 | 5.0 | 10.0 | 5.16 | 0.00 | 0.00 | ||
| 20260502222247 | 64 | 217 | 7.0 | 12.0 | 5.16 | 0.00 | 0.00 | ||
| 20260502220947 | 66 | 153 | 7.0 | 12.0 | 5.16 | 0.00 | 0.00 | ||
| 20260502215647 | 64 | 117 | 7.0 | 13.0 | 5.16 | 0.00 | 0.00 | ||
| 20260502213047 | 64 | 89 | 6.0 | 14.0 | 5.16 | 0.00 | 0.00 | ||
| 20260502211748 | 64 | 163 | 6.0 | 11.0 | 5.16 | 0.00 | 0.00 | ||
| 20260502210447 | 63 | 113 | 6.0 | 10.0 | 5.16 | 0.00 | 0.00 | ||
| 20260502205147 | 63 | 155 | 5.0 | 9.0 | 5.16 | 0.00 | 0.00 | ||
| 20260502202547 | 62 | 203 | 5.0 | 17.0 | 5.16 | 0.00 | 0.00 | ||
| 20260502201247 | 62 | 91 | 6.0 | 11.0 | 5.16 | 0.00 | 0.00 | ||
| 20260502195947 | 61 | 158 | 8.0 | 17.0 | 5.16 | 0.00 | 0.00 | ||
| 20260502194647 | 61 | 83 | 3.0 | 9.0 | 5.16 | 0.00 | 0.00 | ||
| 20260502193347 | 60 | 156 | 5.0 | 12.0 | 5.16 | 0.00 | 0.00 | ||
| 20260502192047 | 60 | 155 | 7.0 | 13.0 | 5.16 | 0.00 | 0.00 | ||
| 20260502190747 | 59 | 107 | 6.0 | 12.0 | 5.16 | 0.00 | 0.00 | ||
| 20260502185447 | 60 | 183 | 2.0 | 9.0 | 5.16 | 0.00 | 0.00 | ||
| 20260502184147 | 59 | 94 | 6.0 | 12.0 | 5.16 | 0.00 | 0.00 | ||
| 20260502182847 | 58 | 117 | 6.0 | 14.0 | 5.16 | 0.00 | 0.00 | ||
| 20260502181547 | 59 | 158 | 8.0 | 13.0 | 5.16 | 0.00 | 0.00 | ||
| 20260502180247 | 59 | 128 | 7.0 | 12.0 | 5.16 | 0.00 | 0.00 | ||
| 20260502163147 | 55 | 58 | 5.0 | 8.0 | 5.16 | 0.00 | 0.00 | ||
| 20260502161847 | 54 | 53 | 4.0 | 6.0 | 5.16 | 0.00 | 0.00 | ||
| 20260502160547 | 53 | 68 | 5.0 | 7.0 | 5.16 | 0.00 | 0.00 | ||
| 20260502151347 | 51 | 0 | 0.0 | 0.0 | 5.16 | 0.00 | 0.00 | ||
| 20260502130347 | 45 | 307 | 2.0 | 4.0 | 5.16 | 0.00 | 0.00 | ||
| 20260502123747 | 45 | 281 | 4.0 | 5.0 | 5.16 | 0.00 | 0.00 | ||
| 20260502122447 | 45 | 276 | 4.0 | 6.0 | 5.16 | 0.00 | 0.00 | ||
| 20260502121147 | 45 | 291 | 3.0 | 5.0 | 5.16 | 0.00 | 0.00 | ||
| 20260502115847 | 45 | 305 | 5.0 | 7.0 | 5.16 | 0.00 | 0.00 | ||
| 20260502114547 | 45 | 295 | 4.0 | 6.0 | 5.16 | 0.00 | 0.00 | ||
| 20260502113247 | 45 | 295 | 3.0 | 7.0 | 5.16 | 0.00 | 0.00 | ||
| 20260502111947 | 46 | 316 | 6.0 | 8.0 | 5.16 | 0.00 | 0.00 | ||
| 20260502110647 | 45 | 291 | 6.0 | 8.0 | 5.16 | 0.00 | 0.00 | ||
| 20260502105347 | 45 | 273 | 3.0 | 4.0 | 5.16 | 0.00 | 0.00 | ||
| 20260502104047 | 46 | 288 | 4.0 | 6.0 | 5.16 | 0.00 | 0.00 | ||
| 20260502102747 | 46 | 260 | 4.0 | 7.0 | 5.16 | 0.00 | 0.00 | ||
| 20260502101447 | 47 | 295 | 6.0 | 9.0 | 5.16 | 0.00 | 0.00 | ||
| 20260502100147 | 48 | 274 | 4.0 | 6.0 | 5.16 | 0.00 | 0.00 | ||
| 20260502090946 | 49 | 280 | 6.0 | 9.0 | 5.16 | 0.00 | 0.00 | ||
| 20260502071246 | 48 | 257 | 6.0 | 6.0 | 5.16 | 0.00 | 0.00 | ||
| 20260502065946 | 47 | 252 | 6.0 | 6.0 | 5.16 | 0.00 | 0.00 | ||
| 20260502064646 | 48 | 253 | 6.0 | 7.0 | 5.16 | 0.00 | 0.00 | ||
| 20260502063346 | 48 | 249 | 7.0 | 9.0 | 5.16 | 0.00 | 0.00 | ||
| 20260502062046 | 48 | 260 | 6.0 | 7.0 | 5.16 | 0.00 | 0.00 | ||
| 20260502060746 | 48 | 240 | 8.0 | 9.0 | 5.16 | 0.00 | 0.00 | ||
| 20260502055446 | 48 | 249 | 5.0 | 7.0 | 5.16 | 0.00 | 0.00 | ||
| 20260502054146 | 49 | 278 | 4.0 | 7.0 | 5.16 | 0.00 | 0.00 | ||
| 20260502052847 | 49 | 283 | 4.0 | 7.0 | 5.16 | 0.00 | 0.00 | ||
| 20260502051546 | 49 | 314 | 0.0 | 4.0 | 5.16 | 0.00 | 0.00 | ||
| 20260502050246 | 49 | 321 | 1.0 | 4.0 | 5.16 | 0.00 | 0.00 | ||
| 20260502044946 | 50 | 285 | 4.0 | 9.0 | 5.16 | 0.00 | 0.00 | ||
| 20260502043647 | 50 | 309 | 2.0 | 7.0 | 5.16 | 0.00 | 0.00 | ||
| 20260502042346 | 51 | 14 | 3.0 | 6.0 | 5.16 | 0.00 | 0.00 | ||
| 20260502041047 | 52 | 342 | 3.0 | 7.0 | 5.16 | 0.00 | 0.00 | ||
| 20260502035746 | 53 | 352 | 4.0 | 9.0 | 5.16 | 0.00 | 0.00 | ||
| 20260502034446 | 53 | 356 | 7.0 | 16.0 | 5.16 | 0.00 | 0.00 | ||
| 20260502033146 | 53 | 345 | 6.0 | 17.0 | 5.16 | 0.00 | 0.00 | ||
| 20260502031846 | 54 | 359 | 8.0 | 17.0 | 5.16 | 0.00 | 0.00 | ||
| 20260502030546 | 54 | 359 | 7.0 | 19.0 | 5.16 | 0.00 | 0.00 | ||
| 20260502025246 | 55 | 322 | 7.0 | 16.0 | 5.16 | 0.00 | 0.00 |